CW4320 Weather Reports


time (UTC)temp
C
wind
direction
speed
KPH
gust
KPH
rain 1hr
cm
rain 24hr
cm
rain mn
cm
humidity
%
barometer
mb
20260508025033 11 113 0.0 3.2 0.00 0.05 0.00 80 1008.0
20260508024523 11 113 0.0 4.8 0.00 0.05 0.00 80 1008.0
20260508024035 11 113 1.6 4.8 0.00 0.05 0.00 80 1008.3
20260508023521 11 113 1.6 4.8 0.00 0.05 0.00 80 1008.3
20260508023026 11 113 1.6 4.8 0.00 0.05 0.00 80 1008.3
20260508022533 11 113 1.6 6.4 0.00 0.05 0.00 80 1008.4
20260508022038 11 113 1.6 6.4 0.00 0.05 0.00 80 1008.4
20260508021525 12 115 3.2 6.4 0.00 0.05 0.00 80 1008.4
20260508020553 12 120 3.2 9.7 0.00 0.05 0.00 80 1008.4
20260508020036 12 117 4.8 9.7 0.00 0.05 0.00 80 1008.4
20260508015525 12 115 4.8 9.7 0.00 0.05 0.00 80 1008.4
20260508015032 12 123 6.4 9.7 0.00 0.05 0.00 80 1008.4
20260508014523 12 124 4.8 9.7 0.00 0.05 0.00 80 1008.4
20260508013027 12 117 4.8 6.4 0.00 0.05 0.00 80 1008.5
20260508012022 12 120 4.8 6.4 0.00 0.05 0.00 80 1008.7
20260508011529 12 120 4.8 6.4 0.00 0.05 0.00 80 1008.7
20260508011036 12 121 1.6 4.8 0.00 0.05 0.00 80 1008.9
20260508010023 12 120 1.6 4.8 0.00 0.05 0.00 80 1008.9
20260508005036 12 120 3.2 6.4 0.00 0.05 0.00 80 1009.0
20260508004524 12 120 4.8 6.4 0.00 0.05 0.00 80 1009.0
20260508004034 12 113 3.2 6.4 0.00 0.05 0.00 80 1009.1
20260508003030 12 103 3.2 6.4 0.00 0.05 0.00 80 1009.1
20260508002521 12 109 4.8 6.4 0.00 0.05 0.00 80 1009.2
20260508002027 12 122 3.2 6.4 0.00 0.05 0.00 80 1009.2
20260508001536 12 121 3.2 6.4 0.00 0.05 0.00 80 1009.2
20260508001022 12 117 4.8 6.4 0.00 0.05 0.00 80 1009.2
20260508000029 12 106 1.6 6.4 0.00 0.05 0.00 80 1009.2
20260507235026 12 105 1.6 6.4 0.00 0.05 0.05 80 1009.3
20260507234534 12 105 3.2 6.4 0.00 0.05 0.05 80 1009.3
20260507234022 12 116 0.0 4.8 0.00 0.05 0.05 80 1009.3
20260507233530 13 115 1.6 4.8 0.00 0.05 0.05 80 1009.3
20260507233035 13 116 1.6 4.8 0.00 0.05 0.05 80 1009.3
20260507232524 13 116 3.2 6.4 0.00 0.05 0.05 80 1009.4
20260507231521 13 115 1.6 6.4 0.00 0.05 0.05 80 1009.4
20260507231026 13 125 3.2 6.4 0.00 0.05 0.05 80 1009.5
20260507230547 13 122 4.8 6.4 0.00 0.05 0.05 80 1009.5
20260507225520 13 115 4.8 11.3 0.00 0.05 0.05 80 1009.5
20260507225026 13 148 4.8 9.7 0.00 0.05 0.05 80 1009.5
20260507224537 13 100 4.8 9.7 0.00 0.05 0.05 80 1009.5
20260507224020 13 117 8.0 9.7 0.00 0.05 0.05 80 1009.8
20260507223529 13 117 4.8 9.7 0.00 0.05 0.05 80 1009.8
20260507223036 13 120 4.8 8.0 0.00 0.05 0.05 80 1009.8
20260507222526 13 103 3.2 4.8 0.00 0.05 0.05 80 1010.0
20260507222032 13 122 1.6 4.8 0.00 0.05 0.05 80 1010.0
20260507221027 13 219 0.0 3.2 0.00 0.05 0.05 80 1010.1
20260507220547 13 220 1.6 3.2 0.00 0.05 0.05 80 1010.1
20260507220029 14 220 0.0 1.6 0.00 0.05 0.05 80 1010.1
20260507215523 14 219 0.0 0.0 0.00 0.05 0.05 80 1010.2
20260507215030 14 219 0.0 3.2 0.00 0.05 0.05 80 1010.2
20260507214536 14 219 0.0 4.8 0.00 0.05 0.05 80 1010.2
20260507214039 14 219 3.2 6.4 0.00 0.05 0.05 80 1010.2
20260507213526 15 220 3.2 6.4 0.00 0.05 0.05 80 1010.3
20260507213032 15 229 3.2 8.0 0.00 0.05 0.05 80 1010.3
20260507212538 15 229 3.2 8.0 0.00 0.05 0.05 80 1010.0
20260507212025 15 240 6.4 8.0 0.00 0.05 0.05 80 1010.0
20260507211532 15 103 1.6 6.4 0.00 0.05 0.05 80 1010.0
20260507211036 15 78 3.2 6.4 0.00 0.05 0.05 80 1009.9
20260507210556 15 113 3.2 6.4 0.00 0.05 0.05 80 1009.9
20260507210022 15 51 1.6 4.8 0.00 0.05 0.05 80 1009.9
20260507204528 15 51 0.0 8.0 0.00 0.05 0.05 80 1009.7
20260507204034 15 51 4.8 9.7 0.00 0.05 0.05 80 1009.5
20260507203522 15 40 8.0 9.7 0.00 0.05 0.05 80 1009.5
20260507203029 15 30 4.8 8.0 0.00 0.05 0.05 80 1009.5
20260507202538 15 19 1.6 6.4 0.00 0.05 0.05 80 1009.4
20260507202024 15 19 3.2 9.7 0.00 0.05 0.05 80 1009.4
20260507201037 15 21 4.8 6.4 0.00 0.05 0.05 80 1009.2
20260507200559 15 21 0.0 3.2 0.00 0.05 0.05 80 1009.2
20260507200027 15 21 0.0 6.4 0.00 0.05 0.05 80 1009.2
20260507195535 15 352 3.2 6.4 0.00 0.05 0.05 80 1008.9
20260507195036 15 352 3.2 6.4 0.00 0.05 0.05 80 1008.9
20260507194523 15 352 4.8 6.4 0.00 0.05 0.05 80 1008.9
20260507193539 16 352 1.6 3.2 0.00 0.05 0.05 80 1008.8
20260507192532 16 352 0.0 3.2 0.00 0.05 0.05 80 1008.9
20260507192037 16 352 0.0 3.2 0.00 0.05 0.05 80 1008.9
20260507191525 16 352 1.6 4.8 0.00 0.05 0.05 80 1008.9
20260507190023 16 144 1.6 4.8 0.00 0.05 0.05 80 1008.8
20260507185040 16 144 0.0 6.4 0.00 0.05 0.05 80 1008.5
20260507184529 17 144 3.2 8.0 0.00 0.05 0.05 80 1008.5
20260507184034 17 138 1.6 16.1 0.00 0.05 0.05 80 1008.4
20260507183523 17 151 4.8 16.1 0.00 0.05 0.05 80 1008.4
20260507183030 17 143 8.0 16.1 0.03 0.05 0.05 80 1008.4
20260507182538 16 201 9.7 22.5 0.05 0.05 0.05 80 1008.4
20260507182024 16 139 12.9 22.5 0.05 0.05 0.05 80 1008.4
20260507181532 16 179 9.7 20.9 0.05 0.05 0.05 80 1008.4
20260507181034 17 177 4.8 11.3 0.05 0.05 0.05 80 1008.4
20260507180600 17 187 3.2 11.3 0.05 0.05 0.05 80 1008.4
20260507180023 17 120 0.0 8.0 0.05 0.05 0.05 80 1008.4
20260507174529 17 129 8.0 14.5 0.05 0.05 0.05 80 1008.5
20260507174033 17 86 8.0 16.1 0.05 0.05 0.05 80 1008.9
20260507173521 17 138 8.0 17.7 0.05 0.05 0.05 80 1008.9
20260507173028 17 124 9.7 17.7 0.05 0.05 0.05 80 1008.9
20260507172536 17 99 9.7 17.7 0.03 0.03 0.03 80 1008.9
20260507172022 17 103 11.3 17.7 0.00 0.00 0.00 80 1008.9
20260507171036 17 96 6.4 8.0 0.00 0.00 0.00 80 1009.0
20260507170600 17 24 4.8 6.4 0.00 0.00 0.00 80 1009.0
20260507170041 17 234 0.0 3.2 0.00 0.00 0.00 80 1009.0
20260507165523 17 235 1.6 6.4 0.00 0.00 0.00 80 1009.0
20260507165029 17 234 1.6 6.4 0.00 0.00 0.00 80 1009.0
20260507164026 17 115 1.6 9.7 0.00 0.00 0.00 80 1008.7
20260507163535 17 107 6.4 9.7 0.00 0.00 0.00 80 1008.7
20260507163020 17 105 4.8 16.1 0.00 0.00 0.00 80 1008.7
20260507162530 17 109 8.0 17.7 0.00 0.00 0.00 80 1008.6
20260507162036 17 52 9.7 20.9 0.00 0.00 0.00 80 1008.6
20260507161529 17 63 16.1 20.9 0.00 0.00 0.00 80 1008.6
20260507161024 17 96 12.9 17.7 0.00 0.00 0.00 80 1008.5
20260507160545 17 88 4.8 17.7 0.00 0.00 0.00 80 1008.5
20260507160029 17 146 4.8 17.7 0.00 0.00 0.00 80 1008.5
20260507155535 17 88 9.7 17.7 0.00 0.00 0.00 80 1008.4
20260507154526 17 51 12.9 27.4 0.00 0.00 0.00 80 1008.4
20260507154032 16 66 16.1 27.4 0.00 0.00 0.00 80 1008.4
20260507153521 16 98 14.5 25.7 0.00 0.00 0.00 80 1008.4
20260507153028 16 68 20.9 25.7 0.00 0.00 0.00 80 1008.4
20260507152536 16 57 14.5 25.7 0.00 0.00 0.00 80 1008.8
20260507152029 16 63 17.7 27.4 0.00 0.00 0.00 80 1008.8
20260507151537 16 70 16.1 32.2 0.00 0.00 0.00 80 1008.8
20260507150544 16 63 12.9 29.0 0.00 0.00 0.00 80 1009.0
20260507150026 15 47 17.7 24.1 0.00 0.00 0.00 80 1008.9
20260507145535 15 57 16.1 20.9 0.00 0.00 0.00 80 1008.9
20260507145036 15 48 14.5 20.9 0.00 0.00 0.00 80 1008.9
20260507144523 15 36 14.5 20.9 0.00 0.00 0.00 80 1008.9
20260507144028 15 33 11.3 25.7 0.00 0.00 0.00 80 1009.0
20260507143537 16 56 14.5 25.7 0.00 0.00 0.00 80 1009.0
20260507143025 16 37 16.1 22.5 0.00 0.00 0.00 80 1009.0
20260507142537 16 13 17.7 24.1 0.00 0.00 0.00 80 1008.9
20260507142023 16 10 20.9 24.1 0.00 0.00 0.00 80 1008.9
20260507141530 16 360 11.3 24.1 0.00 0.00 0.00 80 1008.9
20260507141037 16 12 12.9 22.5 0.00 0.00 0.00 80 1008.9
20260507140558 16 360 19.3 22.5 0.00 0.00 0.00 80 1008.9
20260507140037 17 44 12.9 24.1 0.00 0.00 0.00 80 1008.9
20260507135524 17 58 16.1 24.1 0.00 0.00 0.00 80 1008.9
20260507135029 17 45 14.5 24.1 0.00 0.00 0.00 80 1008.9
20260507134538 17 38 17.7 32.2 0.00 0.00 0.00 80 1008.9
20260507134024 17 27 17.7 32.2 0.00 0.00 0.00 80 1008.8
20260507133535 17 21 19.3 29.0 0.00 0.00 0.00 73 1008.8
20260507133039 18 15 17.7 24.1 0.00 0.00 0.00 74 1008.8
20260507132527 18 41 14.5 25.7 0.00 0.00 0.00 80 1008.9
20260507132032 17 24 16.1 25.7 0.00 0.00 0.00 80 1008.9
20260507131539 16 25 16.1 25.7 0.00 0.00 0.00 76 1008.9
20260507131025 16 45 19.3 29.0 0.00 0.00 0.00 70 1008.9
20260507130547 17 44 17.7 29.0 0.00 0.00 0.00 67 1008.9
20260507130031 17 46 20.9 30.6 0.00 0.00 0.00 69 1008.9
20260507125537 17 32 17.7 33.8 0.00 0.00 0.00 64 1009.2
20260507125023 18 48 25.7 33.8 0.00 0.00 0.00 61 1009.2
20260507124537 18 27 20.9 29.0 0.00 0.00 0.00 64 1009.2
20260507123532 18 49 24.1 29.0 0.00 0.00 0.00 69 1009.1
20260507123038 18 28 19.3 32.2 0.00 0.00 0.00 67 1009.1
20260507122524 18 30 24.1 32.2 0.00 0.00 0.00 62 1009.5
20260507122029 18 34 20.9 30.6 0.00 0.00 0.00 70 1009.5
20260507121538 18 29 20.9 27.4 0.00 0.00 0.00 65 1009.5
20260507120545 18 38 16.1 30.6 0.00 0.00 0.00 67 1009.6
20260507120028 18 35 20.9 30.6 0.00 0.00 0.00 63 1009.6
20260507115535 18 32 22.5 27.4 0.00 0.00 0.00 64 1009.9
20260507115026 18 1 20.9 27.4 0.00 0.00 0.00 65 1009.9
20260507114535 18 8 17.7 25.7 0.00 0.00 0.00 59 1009.9
20260507114039 18 10 19.3 25.7 0.00 0.00 0.00 61 1009.9
20260507113527 18 33 17.7 25.7 0.00 0.00 0.00 58 1009.9
20260507113033 18 51 19.3 27.4 0.00 0.00 0.00 60 1009.9
20260507112540 18 39 19.3 27.4 0.00 0.00 0.00 48 1010.1
20260507112026 18 51 19.3 29.0 0.00 0.00 0.00 51 1010.1
20260507111534 18 37 22.5 29.0 0.00 0.00 0.00 51 1010.1
20260507111040 18 39 16.1 29.0 0.00 0.00 0.00 54 1010.1
20260507110601 18 77 19.3 29.0 0.00 0.00 0.00 50 1010.1
20260507110029 18 49 16.1 29.0 0.00 0.00 0.00 52 1010.1
20260507105536 18 65 20.9 29.0 0.00 0.00 0.00 53 1010.4
20260507105040 18 58 17.7 29.0 0.00 0.00 0.00 63 1010.4
20260507104034 18 49 17.7 32.2 0.00 0.00 0.00 59 1010.4
20260507103522 18 68 22.5 27.4 0.00 0.00 0.00 60 1010.4
20260507103028 17 52 16.1 25.7 0.00 0.00 0.00 62 1010.4
20260507102539 17 55 17.7 25.7 0.00 0.00 0.00 61 1010.6
20260507101536 17 66 19.3 27.4 0.00 0.00 0.00 68 1010.6
20260507101021 17 54 20.9 27.4 0.00 0.00 0.00 67 1010.8
20260507100547 17 73 11.3 24.1 0.00 0.00 0.00 70 1010.8
20260507100029 17 84 17.7 29.0 0.00 0.00 0.00 72 1010.8
20260507095536 17 75 17.7 29.0 0.00 0.00 0.00 75 1010.9
20260507095038 17 56 20.9 27.4 0.00 0.05 0.00 76 1010.9
20260507094526 17 57 22.5 27.4 0.00 0.05 0.00 76 1010.9
20260507094030 17 60 19.3 27.4 0.00 0.05 0.00 80 1011.0
20260507093539 16 64 19.3 27.4 0.00 0.05 0.00 80 1011.0
20260507093025 16 65 20.9 27.4 0.00 0.05 0.00 80 1011.0
20260507092532 16 55 19.3 24.1 0.00 0.05 0.00 80 1011.0
20260507092035 15 37 11.3 17.7 0.00 0.05 0.00 80 1011.0
20260507091526 15 66 11.3 20.9 0.00 0.05 0.00 80 1011.0
20260507091031 14 58 14.5 20.9 0.00 0.05 0.00 80 1011.0
20260507090552 14 55 12.9 17.7 0.00 0.05 0.00 80 1011.0
20260507090036 14 42 12.9 17.7 0.00 0.05 0.00 80 1011.0
20260507085524 14 75 11.3 16.1 0.00 0.05 0.00 80 1011.2
20260507085031 14 66 9.7 22.5 0.00 0.08 0.00 80 1011.2
20260507084521 13 84 16.1 22.5 0.00 0.08 0.00 80 1011.2
20260507084026 13 86 11.3 17.7 0.00 0.08 0.00 80 1011.2
20260507083536 13 86 9.7 19.3 0.00 0.08 0.00 80 1011.2
20260507083021 13 65 12.9 19.3 0.00 0.08 0.00 80 1011.2
20260507082021 13 69 16.1 20.9 0.00 0.08 0.00 80 1011.4
20260507081037 13 58 8.0 17.7 0.00 0.08 0.00 80 1011.5
20260507080559 13 72 6.4 17.7 0.00 0.08 0.00 80 1011.5
20260507080021 13 70 6.4 11.3 0.00 0.08 0.00 80 1011.5
20260507075036 12 69 9.7 12.9 0.00 0.08 0.00 80 1011.5
20260507074523 12 113 1.6 8.0 0.00 0.08 0.00 80 1011.5
20260507074030 12 119 3.2 9.7 0.00 0.08 0.00 80 1011.5
20260507073539 12 148 6.4 9.7 0.00 0.08 0.00 80 1011.5
20260507073024 12 147 4.8 6.4 0.00 0.08 0.00 80 1011.5
20260507072539 12 119 3.2 8.0 0.00 0.08 0.00 80 1011.5
20260507072024 11 94 4.8 8.0 0.00 0.08 0.00 80 1011.5
20260507071040 11 106 4.8 8.0 0.00 0.08 0.00 80 1011.5
20260507070602 11 110 4.8 6.4 0.00 0.08 0.00 80 1011.5
20260507070024 11 98 4.8 6.4 0.00 0.08 0.00 80 1011.5
20260507065038 11 82 3.2 8.0 0.00 0.08 0.00 80 1011.5
20260507064527 11 96 4.8 8.0 0.00 0.08 0.00 80 1011.5
20260507063524 11 94 3.2 6.4 0.00 0.08 0.00 80 1011.6
20260507063030 10 94 3.2 4.8 0.00 0.08 0.00 80 1011.6
20260507062033 10 75 4.8 8.0 0.00 0.08 0.00 80 1011.8
20260507061523 10 75 4.8 8.0 0.00 0.08 0.00 80 1011.8
20260507061026 10 117 3.2 4.8 0.00 0.08 0.00 80 1011.8
20260507060548 10 117 1.6 4.8 0.00 0.08 0.00 80 1011.8
20260507060030 10 117 1.6 4.8 0.00 0.08 0.00 80 1011.8
20260507055538 10 117 3.2 4.8 0.00 0.08 0.00 80 1011.8
20260507054533 9 121 3.2 6.4 0.00 0.08 0.00 80 1011.8
20260507053529 9 101 3.2 6.4 0.00 0.08 0.00 80 1011.8
20260507053035 9 115 1.6 6.4 0.00 0.08 0.00 80 1011.8
20260507052527 9 115 3.2 4.8 0.00 0.08 0.00 80 1011.9
20260507052032 8 124 1.6 4.8 0.00 0.08 0.00 80 1011.9
20260507051520 8 130 0.0 4.8 0.00 0.08 0.00 80 1011.9
20260507051027 8 130 1.6 4.8 0.00 0.08 0.00 80 1012.0
20260507050648 8 130 3.2 4.8 0.00 0.08 0.00 80 1012.0
20260507050027 8 130 3.2 4.8 0.00 0.08 0.00 80 1012.0
20260507045538 8 139 1.6 3.2 0.00 0.08 0.00 80 1012.0
20260507045024 8 139 3.2 3.2 0.00 0.08 0.00 80 1012.0
20260507044532 8 137 3.2 3.2 0.00 0.08 0.00 80 1012.0
20260507044035 8 139 1.6 3.2 0.00 0.08 0.00 80 1012.1
20260507043033 8 139 1.6 3.2 0.00 0.08 0.00 80 1012.1
20260507042527 9 139 0.0 3.2 0.00 0.08 0.00 80 1012.1
20260507042031 9 139 1.6 3.2 0.00 0.08 0.00 80 1012.1
20260507041539 9 139 1.6 4.8 0.00 0.08 0.00 80 1012.1
20260507041023 9 139 1.6 6.4 0.00 0.08 0.00 80 1012.4
20260507040544 9 136 3.2 6.4 0.00 0.08 0.00 80 1012.4
20260507040029 9 136 3.2 6.4 0.00 0.08 0.00 80 1012.4
20260507035537 9 144 4.8 6.4 0.00 0.08 0.00 80 1012.5
20260507035023 9 295 1.6 4.8 0.00 0.15 0.00 80 1012.5
20260507034533 9 295 3.2 4.8 0.00 0.15 0.00 80 1012.5
20260507033038 9 295 1.6 4.8 0.00 0.15 0.00 80 1012.4
20260507032527 9 295 1.6 4.8 0.00 0.15 0.00 80 1012.6
20260507032034 9 295 3.2 4.8 0.00 0.15 0.00 80 1012.6
20260507031521 9 295 3.2 4.8 0.00 0.15 0.00 80 1012.6
20260507031028 9 294 1.6 4.8 0.00 0.15 0.00 80 1012.6
20260507030548 9 295 1.6 4.8 0.00 0.15 0.00 80 1012.6
20260507030038 9 295 3.2 4.8 0.00 0.15 0.00 80 1012.6